Cut Bank, MT

1:15 PM MST on November 15, 2019 (GMT -0700)
Cut Bank Municipal

Weather History for KCTB - September, 2019

Change the Weather History Date:

Monday, September 23, 2019

  Actual Average Record
Temperature  
Mean Temperature 60 °F 51 °F  
Max Temperature 68 °F 65 °F 92 °F (2009)
Min Temperature 53 °F 38 °F 15 °F (1926)
Degree Days  
Heating Degree Days 4 14  
Month to date heating degree days 167 238  
Since 1 July heating degree days 340 432  
Cooling Degree Days 0 0  
Month to date cooling degree days 2 6  
Year to date cooling degree days 106 159  
Growing Degree Days 10 (Base 50)    
Moisture  
Dew Point 39 °F    
Average Humidity 48    
Maximum Humidity 59    
Minimum Humidity 33    
Precipitation  
Precipitation 0.00 in 0.03 in 1.25 in (2007)
Month to date precipitation 1.03 0.99  
Year to date precipitation 9.86 9.65  
Snow  
Snow - - - ()
Snow Depth 0.00 in    
Sea Level Pressure  
Sea Level Pressure 29.83 in    
Wind  
Wind Speed 17 mph ()    
Max Wind Speed 40 mph    
Max Gust Speed 50 mph    
Visibility 10.0 miles    
Events      
T = Trace of Precipitation, MM = Missing Value Source: Averaged Metar Reports

Daily Weather History Graph

Daily Weather History Graph

Search for Another Location

Airport or City:

Astronomy

Sep. 23, 2019 Rise Set
Actual Time 7:17 AM MDT 7:25 PM MDT
Civil Twilight 6:45 AM MDT 7:56 PM MDT
Nautical Twilight 6:09 AM MDT 8:33 PM MDT
Astronomical Twilight 5:30 AM MDT 9:11 PM MDT
Moon 12:32 AM MDT (9/23) 4:53 PM MDT (9/23)
Length of Visible Light 13h 10m
Length of Day
12h 08m
Waning Crescent, 32% of the Moon is Illuminated
Sep 23
Waning Crescent
Sep 28
New
Oct 5
First Quarter
Oct 13
Full
Oct 21
Last Quarter

Hourly Weather History & Observations

Time (MDT) Temp. Dew Point Humidity Pressure Visibility Wind Dir Wind Speed Gust Speed Precip Events Conditions
12:56 AM 55.9 °F 41.0 °F 57% 29.76 in 10.0 mi West 6.9 mph - N/A   Clear
1:56 AM 55.9 °F 41.0 °F 57% 29.75 in 10.0 mi WSW 10.4 mph - N/A   Clear
2:56 AM 57.0 °F 42.1 °F 57% 29.77 in 10.0 mi WSW 13.8 mph - N/A   Partly Cloudy
3:56 AM 59.0 °F 42.1 °F 53% 29.77 in 10.0 mi WSW 21.9 mph 26.5 mph N/A   Mostly Cloudy
4:56 AM 55.9 °F 41.0 °F 57% 29.79 in 10.0 mi WSW 19.6 mph 32.2 mph N/A   Scattered Clouds
5:56 AM 55.0 °F 41.0 °F 59% 29.80 in 10.0 mi WSW 17.3 mph - N/A   Scattered Clouds
6:56 AM 55.0 °F 39.9 °F 57% 29.81 in 10.0 mi WSW 21.9 mph 32.2 mph N/A   Clear
7:56 AM 54.0 °F 39.9 °F 59% 29.84 in 10.0 mi WSW 17.3 mph 24.2 mph N/A   Clear
8:56 AM 57.9 °F 39.9 °F 51% 29.86 in 10.0 mi WSW 18.4 mph 25.3 mph N/A   Clear
9:56 AM 62.1 °F 39.9 °F 44% 29.84 in 10.0 mi WSW 25.3 mph 33.4 mph N/A   Clear
10:56 AM 64.0 °F 37.9 °F 38% 29.85 in 10.0 mi WSW 23.0 mph 34.5 mph N/A   Clear
11:56 AM 64.9 °F 37.9 °F 37% 29.86 in 10.0 mi WSW 20.7 mph 28.8 mph N/A   Clear
12:56 PM 66.9 °F 37.0 °F 33% 29.83 in 10.0 mi WSW 21.9 mph 35.7 mph N/A   Clear
1:56 PM 64.9 °F 37.0 °F 36% 29.83 in 10.0 mi West 19.6 mph 33.4 mph N/A   Clear
2:56 PM 62.1 °F 39.0 °F 43% 29.84 in 10.0 mi WSW 25.3 mph 40.3 mph N/A   Clear
3:56 PM 61.0 °F 39.0 °F 44% 29.85 in 10.0 mi WSW 33.4 mph 41.4 mph N/A   Clear
4:56 PM 59.0 °F 37.9 °F 46% 29.85 in 10.0 mi WSW 28.8 mph 39.1 mph N/A   Mostly Cloudy
5:56 PM 59.0 °F 34.0 °F 39% 29.85 in 10.0 mi SW 20.7 mph 33.4 mph N/A   Partly Cloudy
6:56 PM 57.9 °F 36.0 °F 44% 29.85 in 10.0 mi WSW 34.5 mph 43.7 mph N/A   Clear
7:56 PM 57.0 °F 34.0 °F 42% 29.88 in 10.0 mi WSW 25.3 mph 32.2 mph N/A   Clear
8:56 PM 55.9 °F 36.0 °F 47% 29.86 in 10.0 mi WSW 29.9 mph 41.4 mph N/A   Clear
9:56 PM 54.0 °F 37.0 °F 53% 29.83 in 10.0 mi WSW 28.8 mph 39.1 mph N/A   Clear
10:56 PM 54.0 °F 37.9 °F 55% 29.84 in 10.0 mi WSW 33.4 mph 49.5 mph N/A   Clear
11:56 PM 54.0 °F 37.9 °F 55% 29.86 in 10.0 mi West 19.6 mph 29.9 mph N/A   Clear